When you browse on this site, cookies collect data to enhance your experience and personalize the content and advertising you see.
Visit our Privacy Policy to learn more. By continuing to use the site, you agree to this use of cookies and data.
  • In Latvia
  • List of Countries
  • For 7 days
  • Water Temperature
  • Satellite Maps
  • Weather Map
  • Weather Widgets
  • user-avatar
    Login

    Hourly Weather Maripasoula

    Today, 26 June, Wednesday

    Time Temperature Precipitation Wind Pressure Humidity
    00:00 +22°C° 0.1 mm 0 mps 747 mmHg 99%
    01:00 +22°C° 0.1 mm 0 mps 747 mmHg 99%
    02:00 +22°C° 0.1 mm 0 mps 747 mmHg 99%
    03:00 +22°C° 0 mm 0 mps 747 mmHg 99%
    04:00 +21°C° 0 mm 0 mps 747 mmHg 99%
    05:00 +21°C° 0 mm 0 mps 747 mmHg 99%
    06:00 +22°C° 0 mm 0 mps 747 mmHg 96%
    07:00 +24°C° 0 mm 0 mps 748 mmHg 93%
    08:00 +25°C° 0 mm 0 mps 748 mmHg 90%
    09:00 +28°C° 0.2 mm 1 mps 748 mmHg 81%
    10:00 +30°C° 0.2 mm 1 mps 748 mmHg 72%
    11:00 +31°C° 0.2 mm 1 mps 748 mmHg 64%
    12:00 +31°C° 0.9 mm 1 mps 747 mmHg 71%
    13:00 +30°C° 0.9 mm 1 mps 746 mmHg 78%
    14:00 +30°C° 0.9 mm 1 mps 746 mmHg 85%
    15:00 +29°C° 1.3 mm 1 mps 746 mmHg 89%
    16:00 +28°C° 1.3 mm 1 mps 746 mmHg 93%
    17:00 +27°C° 1.3 mm 1 mps 746 mmHg 96%
    18:00 +26°C° 1.2 mm 1 mps 746 mmHg 97%
    19:00 +25°C° 1.2 mm 1 mps 747 mmHg 97%
    20:00 +25°C° 1.2 mm 1 mps 747 mmHg 98%
    21:00 +25°C° 0.1 mm 1 mps 747 mmHg 98%
    22:00 +24°C° 0.1 mm 1 mps 748 mmHg 98%
    23:00 +22°C° 0.1 mm 0 mps 748 mmHg 99%

    Tomorrow, 27 June, Thursday

    Time Temperature Precipitation Wind Pressure Humidity
    00:00 +22°C° 0 mm 0 mps 747 mmHg 99%
    01:00 +22°C° 0 mm 0 mps 747 mmHg 99%
    02:00 +22°C° 0 mm 0 mps 747 mmHg 99%
    03:00 +21°C° 0 mm 0 mps 747 mmHg 99%
    04:00 +21°C° 0 mm 0 mps 747 mmHg 99%
    05:00 +21°C° 0 mm 0 mps 747 mmHg 99%
    06:00 +22°C° 0 mm 0 mps 747 mmHg 96%
    07:00 +25°C° 0 mm 1 mps 748 mmHg 94%
    08:00 +26°C° 0 mm 1 mps 748 mmHg 91%
    09:00 +28°C° 0 mm 1 mps 748 mmHg 82%
    10:00 +29°C° 0 mm 1 mps 748 mmHg 73%
    11:00 +31°C° 0 mm 2 mps 748 mmHg 63%
    12:00 +31°C° 0.4 mm 2 mps 747 mmHg 69%
    13:00 +31°C° 0.4 mm 2 mps 746 mmHg 74%
    14:00 +30°C° 0.4 mm 2 mps 746 mmHg 79%
    15:00 +30°C° 0.6 mm 2 mps 746 mmHg 83%
    16:00 +29°C° 0.6 mm 1 mps 746 mmHg 87%
    17:00 +28°C° 0.6 mm 1 mps 745 mmHg 92%
    18:00 +27°C° 0.1 mm 1 mps 746 mmHg 94%
    19:00 +26°C° 0.1 mm 1 mps 747 mmHg 95%
    20:00 +25°C° 0.1 mm 1 mps 747 mmHg 97%
    21:00 +24°C° 0 mm 1 mps 747 mmHg 98%
    22:00 +22°C° 0 mm 0 mps 747 mmHg 98%
    23:00 +22°C° 0 mm 0 mps 748 mmHg 99%

    Day after tomorrow, 28 June, Friday

    Time Temperature Precipitation Wind Pressure Humidity
    00:00 +22°C° 0 mm 0 mps 747 mmHg 99%
    01:00 +21°C° 0 mm 0 mps 747 mmHg 99%
    02:00 +21°C° 0 mm 0 mps 746 mmHg 99%
    03:00 +21°C° 0 mm 0 mps 746 mmHg 99%
    04:00 +21°C° 0 mm 0 mps 746 mmHg 99%
    05:00 +21°C° 0 mm 0 mps 746 mmHg 99%
    06:00 +22°C° 0 mm 0 mps 747 mmHg 97%
    07:00 +25°C° 0 mm 1 mps 747 mmHg 95%
    08:00 +26°C° 0 mm 1 mps 748 mmHg 93%
    09:00 +27°C° 0.2 mm 1 mps 748 mmHg 85%
    10:00 +29°C° 0.2 mm 1 mps 747 mmHg 77%
    11:00 +31°C° 0.2 mm 1 mps 747 mmHg 69%
    12:00 +31°C° 0.7 mm 1 mps 747 mmHg 72%
    13:00 +31°C° 0.7 mm 1 mps 746 mmHg 75%
    14:00 +31°C° 0.7 mm 1 mps 745 mmHg 78%
    15:00 +29°C° 1.2 mm 1 mps 745 mmHg 84%
    16:00 +28°C° 1.2 mm 1 mps 745 mmHg 90%
    17:00 +27°C° 1.2 mm 1 mps 745 mmHg 96%
    18:00 +26°C° 0.3 mm 1 mps 746 mmHg 97%
    19:00 +26°C° 0.3 mm 1 mps 746 mmHg 98%
    20:00 +25°C° 0.3 mm 1 mps 747 mmHg 99%
    21:00 +22°C° 0 mm 0 mps 747 mmHg 99%
    22:00 +22°C° 0 mm 0 mps 747 mmHg 99%
    23:00 +22°C° 0 mm 0 mps 748 mmHg 99%

    29 June, Saturday

    Time Temperature Precipitation Wind Pressure Humidity
    00:00 +22°C° 0 mm 0 mps 747 mmHg 99%
    01:00 +22°C° 0 mm 0 mps 746 mmHg 99%
    02:00 +22°C° 0 mm 0 mps 746 mmHg 99%
    03:00 +22°C° 0 mm 0 mps 746 mmHg 99%
    04:00 +21°C° 0 mm 0 mps 746 mmHg 99%
    05:00 +21°C° 0 mm 0 mps 746 mmHg 99%
    06:00 +23°C° 0 mm 0 mps 746 mmHg 96%
    07:00 +24°C° 0 mm 0 mps 747 mmHg 93%
    08:00 +25°C° 0 mm 0 mps 747 mmHg 91%
    09:00 +25°C° 0.9 mm 0 mps 747 mmHg 91%
    10:00 +28°C° 0.9 mm 1 mps 747 mmHg 92%
    11:00 +28°C° 0.9 mm 1 mps 747 mmHg 93%
    12:00 +29°C° 1.7 mm 1 mps 746 mmHg 92%
    13:00 +29°C° 1.7 mm 1 mps 745 mmHg 91%
    14:00 +29°C° 1.7 mm 1 mps 745 mmHg 90%
    15:00 +29°C° 2.5 mm 1 mps 745 mmHg 92%
    16:00 +28°C° 2.5 mm 1 mps 745 mmHg 94%
    17:00 +27°C° 2.5 mm 1 mps 744 mmHg 97%
    18:00 +26°C° 1.5 mm 1 mps 745 mmHg 97%
    19:00 +26°C° 1.5 mm 1 mps 746 mmHg 98%
    20:00 +25°C° 1.5 mm 1 mps 747 mmHg 98%
    21:00 +25°C° 0.2 mm 1 mps 747 mmHg 98%
    22:00 +24°C° 0.2 mm 1 mps 747 mmHg 98%
    23:00 +22°C° 0.2 mm 0 mps 747 mmHg 99%

    30 June, Sunday

    Time Temperature Precipitation Wind Pressure Humidity
    00:00 +22°C° 0 mm 0 mps 747 mmHg 99%
    01:00 +22°C° 0 mm 0 mps 746 mmHg 99%
    02:00 +22°C° 0 mm 0 mps 746 mmHg 99%
    03:00 +21°C° 0 mm 0 mps 746 mmHg 99%
    04:00 +21°C° 0 mm 0 mps 746 mmHg 99%
    05:00 +21°C° 0 mm 0 mps 746 mmHg 99%
    06:00 +22°C° 0 mm 0 mps 747 mmHg 96%
    07:00 +24°C° 0 mm 0 mps 747 mmHg 93%
    08:00 +25°C° 0 mm 0 mps 747 mmHg 90%
    09:00 +28°C° 0.6 mm 1 mps 747 mmHg 90%
    10:00 +28°C° 0.6 mm 1 mps 747 mmHg 90%
    11:00 +29°C° 0.6 mm 1 mps 747 mmHg 91%
    12:00 +29°C° 1.8 mm 1 mps 746 mmHg 92%
    13:00 +29°C° 1.8 mm 1 mps 746 mmHg 93%
    14:00 +29°C° 1.8 mm 1 mps 745 mmHg 94%
    15:00 +28°C° 1.8 mm 1 mps 745 mmHg 95%
    16:00 +27°C° 1.8 mm 1 mps 745 mmHg 96%
    17:00 +27°C° 1.8 mm 1 mps 745 mmHg 97%
    18:00 +26°C° 0.6 mm 1 mps 746 mmHg 97%
    19:00 +25°C° 0.6 mm 1 mps 747 mmHg 98%
    20:00 +25°C° 0.6 mm 1 mps 747 mmHg 98%
    21:00 +23°C° 0 mm 0 mps 747 mmHg 99%
    22:00 +22°C° 0 mm 0 mps 747 mmHg 99%
    23:00 +22°C° 0 mm 0 mps 748 mmHg 99%

    1 July, Monday

    Time Temperature Precipitation Wind Pressure Humidity
    00:00 +22°C° 0 mm 0 mps 747 mmHg 99%
    01:00 +22°C° 0 mm 0 mps 747 mmHg 99%
    02:00 +22°C° 0 mm 0 mps 746 mmHg 99%
    03:00 +22°C° 0 mm 0 mps 746 mmHg 99%
    04:00 +22°C° 0 mm 0 mps 747 mmHg 99%
    05:00 +22°C° 0 mm 0 mps 747 mmHg 99%
    06:00 +22°C° 0 mm 0 mps 747 mmHg 98%
    07:00 +23°C° 0 mm 0 mps 748 mmHg 96%
    08:00 +24°C° 0 mm 0 mps 748 mmHg 95%
    09:00 +27°C° 0.7 mm 1 mps 748 mmHg 90%
    10:00 +28°C° 0.7 mm 1 mps 748 mmHg 86%
    11:00 +29°C° 0.7 mm 2 mps 748 mmHg 81%
    12:00 +29°C° 1.1 mm 2 mps 747 mmHg 83%
    13:00 +29°C° 1.1 mm 1 mps 746 mmHg 84%
    14:00 +29°C° 1.1 mm 1 mps 746 mmHg 86%
    15:00 +29°C° 1.2 mm 1 mps 746 mmHg 90%
    16:00 +28°C° 1.2 mm 1 mps 746 mmHg 93%
    17:00 +27°C° 1.2 mm 1 mps 746 mmHg 97%
    18:00 +26°C° 0.7 mm 1 mps 747 mmHg 98%
    19:00 +26°C° 0.7 mm 1 mps 747 mmHg 98%
    20:00 +25°C° 0.7 mm 1 mps 748 mmHg 98%
    21:00 +25°C° 0.2 mm 1 mps 748 mmHg 98%
    22:00 +22°C° 0.2 mm 0 mps 748 mmHg 98%
    23:00 +22°C° 0.2 mm 0 mps 748 mmHg 99%
    Show more